Time,TemperatureF,DewpointF,PressureIn,WindDirection,WindDirectionDegrees,WindSpeedMPH,WindSpeedGustMPH,Humidity,HourlyPrecipIn,Conditions,Clouds,dailyrainin,SoftwareType,DateUTC
2013-03-03 00:02:00,9.0,5.0,30.22,NNW,348,2.0,-999.0,85,-99.99,,,-99.99,,2013-03-03 05:02:00,
2013-03-03 00:11:00,9.0,5.0,30.22,NNW,348,2.0,-999.0,85,-99.99,,,-99.99,,2013-03-03 05:11:00,
2013-03-03 00:22:00,8.0,4.0,30.21,NW,319,1.0,-999.0,83,-99.99,,,-99.99,,2013-03-03 05:22:00,
2013-03-03 00:32:00,8.0,4.0,30.21,NNW,338,2.0,-999.0,84,-99.99,,,-99.99,,2013-03-03 05:32:00,
2013-03-03 00:42:00,8.0,4.0,30.21,NNW,338,2.0,-999.0,84,-99.99,,,-99.99,,2013-03-03 05:42:00,
2013-03-03 00:52:00,8.0,4.0,30.21,NW,318,1.0,-999.0,82,-99.99,,,-99.99,,2013-03-03 05:52:00,
2013-03-03 01:02:00,6.0,2.0,30.21,NW,313,0.0,-999.0,83,-99.99,,,-99.99,,2013-03-03 06:02:00,
2013-03-03 01:11:00,6.0,2.0,30.21,NW,313,0.0,-999.0,83,-99.99,,,-99.99,,2013-03-03 06:11:00,
2013-03-03 01:21:00,5.0,1.0,30.21,NW,314,0.0,-999.0,83,-99.99,,,-99.99,,2013-03-03 06:21:00,
2013-03-03 01:32:00,5.0,2.0,30.20,NW,315,0.0,-999.0,85,-99.99,,,-99.99,,2013-03-03 06:32:00,
2013-03-03 01:42:00,5.0,2.0,30.20,NW,315,0.0,-999.0,85,-99.99,,,-99.99,,2013-03-03 06:42:00,
2013-03-03 01:52:00,4.0,0.0,30.20,NW,315,0.0,-999.0,83,-99.99,,,-99.99,,2013-03-03 06:52:00,
2013-03-03 02:01:00,2.0,-3.0,30.20,NW,315,0.0,-999.0,80,-99.99,,,-99.99,,2013-03-03 07:01:00,
2013-03-03 02:11:00,2.0,-3.0,30.20,NW,315,0.0,-999.0,80,-99.99,,,-99.99,,2013-03-03 07:11:00,
2013-03-03 02:21:00,0.0,-4.0,30.20,NW,315,0.0,-999.0,82,-99.99,,,-99.99,,2013-03-03 07:21:00,
2013-03-03 02:31:00,0.0,-4.0,30.20,NW,315,0.0,-999.0,83,-99.99,,,-99.99,,2013-03-03 07:31:00,
2013-03-03 02:42:00,0.0,-4.0,30.20,NW,315,0.0,-999.0,83,-99.99,,,-99.99,,2013-03-03 07:42:00,
2013-03-03 02:51:00,0.0,-2.0,30.20,NNW,342,1.0,-999.0,89,-99.99,,,-99.99,,2013-03-03 07:51:00,
2013-03-03 03:01:00,6.0,4.0,30.19,North,351,1.0,-999.0,90,-99.99,,,-99.99,,2013-03-03 08:01:00,
2013-03-03 03:11:00,6.0,4.0,30.19,North,351,1.0,-999.0,90,-99.99,,,-99.99,,2013-03-03 08:11:00,
2013-03-03 03:21:00,7.0,3.0,30.19,North,355,0.0,-999.0,83,-99.99,,,-99.99,,2013-03-03 08:21:00,
2013-03-03 03:31:00,2.0,-4.0,30.19,North,355,0.0,-999.0,75,-99.99,,,-99.99,,2013-03-03 08:31:00,
2013-03-03 03:41:00,2.0,-4.0,30.19,North,355,0.0,-999.0,75,-99.99,,,-99.99,,2013-03-03 08:41:00,
2013-03-03 03:53:00,0.0,-4.0,30.19,NNW,346,1.0,-999.0,81,-99.99,,,-99.99,,2013-03-03 08:53:00,
2013-03-03 04:01:00,0.0,-4.0,30.19,NNW,347,0.0,-999.0,81,-99.99,,,-99.99,,2013-03-03 09:01:00,
2013-03-03 04:11:00,0.0,-4.0,30.19,NNW,347,0.0,-999.0,81,-99.99,,,-99.99,,2013-03-03 09:11:00,
2013-03-03 04:21:00,0.0,-2.0,30.18,North,355,2.0,-999.0,90,-99.99,,,-99.99,,2013-03-03 09:21:00,
2013-03-03 04:32:00,8.0,8.0,30.18,North,5,4.0,-999.0,100,-99.99,,,-99.99,,2013-03-03 09:32:00,
2013-03-03 04:41:00,8.0,8.0,30.18,North,5,4.0,-999.0,100,-99.99,,,-99.99,,2013-03-03 09:41:00,
2013-03-03 04:51:00,9.0,5.0,30.18,North,5,1.0,-999.0,85,-99.99,,,-99.99,,2013-03-03 09:51:00,
2013-03-03 05:01:00,9.0,5.0,30.18,North,5,1.0,-999.0,85,-99.99,,,-99.99,,2013-03-03 10:01:00,
2013-03-03 05:11:00,9.0,5.0,30.18,North,5,1.0,-999.0,85,-99.99,,,-99.99,,2013-03-03 10:11:00,
2013-03-03 05:21:00,6.0,0.0,30.19,NNW,340,0.0,-999.0,75,-99.99,,,-99.99,,2013-03-03 10:21:00,
2013-03-03 05:32:00,2.0,-4.0,30.19,NNW,336,0.0,-999.0,77,-99.99,,,-99.99,,2013-03-03 10:32:00,
2013-03-03 05:42:00,2.0,-4.0,30.19,NNW,336,0.0,-999.0,77,-99.99,,,-99.99,,2013-03-03 10:42:00,
2013-03-03 05:52:00,0.0,-5.0,30.19,NNW,336,0.0,-999.0,78,-99.99,,,-99.99,,2013-03-03 10:52:00,
2013-03-03 06:01:00,-2.0,-7.0,30.19,NNW,336,0.0,-999.0,78,-99.99,,,-99.99,,2013-03-03 11:01:00,
2013-03-03 06:11:00,-2.0,-7.0,30.19,NNW,336,0.0,-999.0,78,-99.99,,,-99.99,,2013-03-03 11:11:00,
2013-03-03 06:21:00,-2.0,-7.0,30.19,NNW,336,0.0,-999.0,78,-99.99,,,-99.99,,2013-03-03 11:21:00,
2013-03-03 06:32:00,-4.0,-8.0,30.19,NNW,336,0.0,-999.0,82,-99.99,,,-99.99,,2013-03-03 11:32:00,
2013-03-03 06:42:00,-4.0,-8.0,30.19,NNW,336,0.0,-999.0,82,-99.99,,,-99.99,,2013-03-03 11:42:00,
2013-03-03 06:52:00,-4.0,-8.0,30.20,NNW,336,0.0,-999.0,84,-99.99,,,-99.99,,2013-03-03 11:52:00,
2013-03-03 07:01:00,-4.0,-7.0,30.21,NNW,336,0.0,-999.0,85,-99.99,,,-99.99,,2013-03-03 12:01:00,
2013-03-03 07:11:00,-4.0,-7.0,30.21,NNW,336,0.0,-999.0,85,-99.99,,,-99.99,,2013-03-03 12:11:00,
2013-03-03 07:21:00,-3.0,-6.0,30.21,NNW,336,0.0,-999.0,86,-99.99,,,-99.99,,2013-03-03 12:21:00,
2013-03-03 07:32:00,-2.0,-5.0,30.21,NNW,336,0.0,-999.0,88,-99.99,,,-99.99,,2013-03-03 12:32:00,
2013-03-03 07:42:00,-2.0,-5.0,30.21,NNW,336,0.0,-999.0,88,-99.99,,,-99.99,,2013-03-03 12:42:00,
2013-03-03 07:52:00,-1.0,-4.0,30.22,NNW,338,0.0,-999.0,88,-99.99,,,-99.99,,2013-03-03 12:52:00,
2013-03-03 08:01:00,0.0,-2.0,30.21,NNW,338,0.0,-999.0,91,-99.99,,,-99.99,,2013-03-03 13:01:00,
2013-03-03 08:11:00,0.0,-2.0,30.21,NNW,338,0.0,-999.0,91,-99.99,,,-99.99,,2013-03-03 13:11:00,
2013-03-03 08:22:00,5.0,3.0,30.21,NNW,339,1.0,-999.0,93,-99.99,,,-99.99,,2013-03-03 13:22:00,
2013-03-03 08:32:00,7.0,5.0,30.22,NNW,331,1.0,-999.0,91,-99.99,,,-99.99,,2013-03-03 13:32:00,
2013-03-03 08:42:00,7.0,5.0,30.22,NNW,331,1.0,-999.0,91,-99.99,,,-99.99,,2013-03-03 13:42:00,
2013-03-03 08:51:00,10.0,8.0,30.22,NNW,333,3.0,-999.0,91,-99.99,,,-99.99,,2013-03-03 13:51:00,
2013-03-03 09:02:00,11.0,8.0,30.22,NNW,331,3.0,-999.0,89,-99.99,,,-99.99,,2013-03-03 14:02:00,
2013-03-03 09:11:00,11.0,8.0,30.22,NNW,331,3.0,-999.0,89,-99.99,,,-99.99,,2013-03-03 14:11:00,
2013-03-03 09:21:00,13.0,10.0,30.22,NNW,329,2.0,-999.0,88,-99.99,,,-99.99,,2013-03-03 14:21:00,
2013-03-03 09:32:00,14.0,11.0,30.22,NNW,340,4.0,-999.0,87,-99.99,,,-99.99,,2013-03-03 14:32:00,
2013-03-03 09:42:00,14.0,11.0,30.22,NNW,340,4.0,-999.0,87,-99.99,,,-99.99,,2013-03-03 14:42:00,
2013-03-03 09:52:00,15.0,12.0,30.21,North,360,4.0,-999.0,86,-99.99,,,-99.99,,2013-03-03 14:52:00,
2013-03-03 10:01:00,17.0,13.0,30.21,North,355,4.0,-999.0,83,-99.99,,,-99.99,,2013-03-03 15:01:00,
2013-03-03 10:11:00,17.0,13.0,30.21,North,355,4.0,-999.0,83,-99.99,,,-99.99,,2013-03-03 15:11:00,
2013-03-03 10:22:00,18.0,13.0,30.21,NNW,342,5.0,-999.0,81,-99.99,,,-99.99,,2013-03-03 15:22:00,
2013-03-03 10:32:00,18.0,13.0,30.21,North,360,6.0,-999.0,81,-99.99,,,-99.99,,2013-03-03 15:32:00,
2013-03-03 10:42:00,18.0,13.0,30.21,North,360,6.0,-999.0,81,-99.99,,,-99.99,,2013-03-03 15:42:00,
2013-03-03 10:52:00,19.0,14.0,30.21,North,5,6.0,-999.0,81,-99.99,,,-99.99,,2013-03-03 15:52:00,
2013-03-03 11:01:00,19.0,13.0,30.21,NNE,23,7.0,-999.0,78,-99.99,,,-99.99,,2013-03-03 16:01:00,
2013-03-03 11:12:00,19.0,13.0,30.21,NNE,23,7.0,-999.0,78,-99.99,,,-99.99,,2013-03-03 16:12:00,
2013-03-03 11:21:00,19.0,13.0,30.21,NNE,23,7.0,-999.0,78,-99.99,,,-99.99,,2013-03-03 16:21:00,
2013-03-03 11:32:00,19.0,12.0,30.21,North,9,8.0,-999.0,74,-99.99,,,-99.99,,2013-03-03 16:32:00,
2013-03-03 11:42:00,19.0,12.0,30.21,North,9,8.0,-999.0,74,-99.99,,,-99.99,,2013-03-03 16:42:00,
2013-03-03 11:52:00,20.0,12.0,30.20,NE,34,7.0,-999.0,71,-99.99,,,-99.99,,2013-03-03 16:52:00,
2013-03-03 12:01:00,21.0,13.0,30.20,North,355,6.0,-999.0,71,-99.99,,,-99.99,,2013-03-03 17:01:00,
2013-03-03 12:11:00,21.0,13.0,30.20,North,360,5.0,-999.0,72,-99.99,,,-99.99,,2013-03-03 17:11:00,
2013-03-03 12:22:00,21.0,13.0,30.20,North,360,5.0,-999.0,72,-99.99,,,-99.99,,2013-03-03 17:22:00,
2013-03-03 12:32:00,21.0,13.0,30.20,NNW,333,5.0,-999.0,71,-99.99,,,-99.99,,2013-03-03 17:32:00,
2013-03-03 12:42:00,21.0,13.0,30.20,NNW,333,5.0,-999.0,71,-99.99,,,-99.99,,2013-03-03 17:42:00,
2013-03-03 12:52:00,22.0,12.0,30.20,North,5,6.0,-999.0,66,-99.99,,,-99.99,,2013-03-03 17:52:00,
2013-03-03 13:01:00,23.0,13.0,30.19,NNE,14,5.0,-999.0,66,-99.99,,,-99.99,,2013-03-03 18:01:00,
2013-03-03 13:11:00,23.0,13.0,30.19,NNE,14,5.0,-999.0,66,-99.99,,,-99.99,,2013-03-03 18:11:00,
2013-03-03 13:21:00,22.0,11.0,30.19,North,355,6.0,-999.0,63,-99.99,,,-99.99,,2013-03-03 18:21:00,
2013-03-03 13:32:00,22.0,12.0,30.18,NNE,27,5.0,-999.0,65,-99.99,,,-99.99,,2013-03-03 18:32:00,
2013-03-03 13:42:00,22.0,12.0,30.18,NNE,27,5.0,-999.0,65,-99.99,,,-99.99,,2013-03-03 18:42:00,
2013-03-03 13:52:00,23.0,12.0,30.17,NNE,13,5.0,-999.0,63,-99.99,,,-99.99,,2013-03-03 18:52:00,
2013-03-03 14:02:00,23.0,12.0,30.17,NNE,16,5.0,-999.0,62,-99.99,,,-99.99,,2013-03-03 19:02:00,
2013-03-03 14:11:00,23.0,12.0,30.17,NNE,16,5.0,-999.0,62,-99.99,,,-99.99,,2013-03-03 19:11:00,
2013-03-03 14:21:00,24.0,12.0,30.17,NNE,16,5.0,-999.0,59,-99.99,,,-99.99,,2013-03-03 19:21:00,
2013-03-03 14:32:00,24.0,13.0,30.16,NNE,26,4.0,-999.0,61,-99.99,,,-99.99,,2013-03-03 19:32:00,
2013-03-03 14:42:00,24.0,13.0,30.16,NNE,26,4.0,-999.0,61,-99.99,,,-99.99,,2013-03-03 19:42:00,
2013-03-03 14:51:00,25.0,12.0,30.16,NE,49,4.0,-999.0,58,-99.99,,,-99.99,,2013-03-03 19:51:00,
2013-03-03 15:01:00,25.0,11.0,30.16,NE,49,5.0,-999.0,55,-99.99,,,-99.99,,2013-03-03 20:01:00,
2013-03-03 15:11:00,25.0,11.0,30.16,NE,49,5.0,-999.0,55,-99.99,,,-99.99,,2013-03-03 20:11:00,
2013-03-03 15:21:00,25.0,11.0,30.16,East,89,5.0,-999.0,55,-99.99,,,-99.99,,2013-03-03 20:21:00,
2013-03-03 15:32:00,25.0,12.0,30.16,NE,52,6.0,-999.0,57,-99.99,,,-99.99,,2013-03-03 20:32:00,
2013-03-03 15:42:00,25.0,12.0,30.16,NE,52,6.0,-999.0,57,-99.99,,,-99.99,,2013-03-03 20:42:00,
2013-03-03 15:52:00,25.0,12.0,30.16,NNE,30,5.0,-999.0,57,-99.99,,,-99.99,,2013-03-03 20:52:00,
2013-03-03 16:02:00,25.0,12.0,30.16,East,85,5.0,-999.0,57,-99.99,,,-99.99,,2013-03-03 21:02:00,
2013-03-03 16:11:00,25.0,12.0,30.16,East,85,5.0,-999.0,57,-99.99,,,-99.99,,2013-03-03 21:11:00,
2013-03-03 16:22:00,25.0,12.0,30.16,NE,51,5.0,-999.0,58,-99.99,,,-99.99,,2013-03-03 21:22:00,
2013-03-03 16:32:00,25.0,13.0,30.16,NE,36,5.0,-999.0,59,-99.99,,,-99.99,,2013-03-03 21:32:00,
2013-03-03 16:42:00,25.0,13.0,30.16,NE,36,5.0,-999.0,59,-99.99,,,-99.99,,2013-03-03 21:42:00,
2013-03-03 16:52:00,25.0,13.0,30.17,ENE,69,5.0,-999.0,60,-99.99,,,-99.99,,2013-03-03 21:52:00,
2013-03-03 17:01:00,24.0,13.0,30.16,NNE,26,5.0,-999.0,62,-99.99,,,-99.99,,2013-03-03 22:01:00,
2013-03-03 17:11:00,24.0,13.0,30.16,NNE,26,5.0,-999.0,62,-99.99,,,-99.99,,2013-03-03 22:11:00,
2013-03-03 17:22:00,24.0,14.0,30.16,NNE,24,5.0,-999.0,64,-99.99,,,-99.99,,2013-03-03 22:22:00,
2013-03-03 17:32:00,23.0,13.0,30.17,NNE,30,5.0,-999.0,65,-99.99,,,-99.99,,2013-03-03 22:32:00,
2013-03-03 17:42:00,23.0,13.0,30.17,NNE,30,5.0,-999.0,65,-99.99,,,-99.99,,2013-03-03 22:42:00,
2013-03-03 17:52:00,23.0,13.0,30.17,NE,38,4.0,-999.0,65,-99.99,,,-99.99,,2013-03-03 22:52:00,
2013-03-03 18:01:00,22.0,12.0,30.17,NE,42,5.0,-999.0,66,-99.99,,,-99.99,,2013-03-03 23:01:00,
2013-03-03 18:11:00,22.0,12.0,30.17,NE,42,5.0,-999.0,66,-99.99,,,-99.99,,2013-03-03 23:11:00,
2013-03-03 18:21:00,21.0,11.0,30.17,NNE,28,5.0,-999.0,66,-99.99,,,-99.99,,2013-03-03 23:21:00,
2013-03-03 18:32:00,20.0,11.0,30.17,NNE,19,4.0,-999.0,68,-99.99,,,-99.99,,2013-03-03 23:32:00,
2013-03-03 18:42:00,20.0,11.0,30.17,NNE,19,4.0,-999.0,68,-99.99,,,-99.99,,2013-03-03 23:42:00,
2013-03-03 18:52:00,19.0,11.0,30.18,NNE,32,4.0,-999.0,70,-99.99,,,-99.99,,2013-03-03 23:52:00,
2013-03-03 19:01:00,18.0,11.0,30.18,NNE,12,3.0,-999.0,72,-99.99,,,-99.99,,2013-03-04 00:01:00,
2013-03-03 19:11:00,18.0,11.0,30.18,NNE,12,3.0,-999.0,72,-99.99,,,-99.99,,2013-03-04 00:11:00,
2013-03-03 19:21:00,17.0,10.0,30.18,NNE,19,2.0,-999.0,75,-99.99,,,-99.99,,2013-03-04 00:21:00,
2013-03-03 19:32:00,17.0,11.0,30.19,NNE,26,2.0,-999.0,77,-99.99,,,-99.99,,2013-03-04 00:32:00,
2013-03-03 19:42:00,17.0,11.0,30.19,NNE,26,2.0,-999.0,77,-99.99,,,-99.99,,2013-03-04 00:42:00,
2013-03-03 19:52:00,16.0,11.0,30.19,NNE,19,2.0,-999.0,79,-99.99,,,-99.99,,2013-03-04 00:52:00,
2013-03-03 20:01:00,15.0,10.0,30.19,NNE,13,2.0,-999.0,81,-99.99,,,-99.99,,2013-03-04 01:01:00,
2013-03-03 20:11:00,15.0,10.0,30.19,NNE,13,2.0,-999.0,81,-99.99,,,-99.99,,2013-03-04 01:11:00,
2013-03-03 20:21:00,14.0,10.0,30.19,NNE,12,1.0,-999.0,82,-99.99,,,-99.99,,2013-03-04 01:21:00,
2013-03-03 20:32:00,13.0,9.0,30.19,NNE,12,0.0,-999.0,82,-99.99,,,-99.99,,2013-03-04 01:32:00,
2013-03-03 20:42:00,13.0,9.0,30.19,NNE,12,0.0,-999.0,82,-99.99,,,-99.99,,2013-03-04 01:42:00,
2013-03-03 20:51:00,12.0,8.0,30.19,NNE,12,0.0,-999.0,83,-99.99,,,-99.99,,2013-03-04 01:51:00,
2013-03-03 21:01:00,11.0,7.0,30.19,NNE,12,0.0,-999.0,85,-99.99,,,-99.99,,2013-03-04 02:01:00,
2013-03-03 21:11:00,11.0,7.0,30.19,NNE,12,0.0,-999.0,85,-99.99,,,-99.99,,2013-03-04 02:11:00,
2013-03-03 21:22:00,10.0,7.0,30.20,NNE,12,0.0,-999.0,86,-99.99,,,-99.99,,2013-03-04 02:22:00,
2013-03-03 21:32:00,9.0,6.0,30.20,NNE,12,0.0,-999.0,86,-99.99,,,-99.99,,2013-03-04 02:32:00,
2013-03-03 21:42:00,9.0,6.0,30.20,NNE,12,0.0,-999.0,86,-99.99,,,-99.99,,2013-03-04 02:42:00,
2013-03-03 21:52:00,9.0,6.0,30.19,NNE,12,0.0,-999.0,87,-99.99,,,-99.99,,2013-03-04 02:52:00,
2013-03-03 22:01:00,7.0,3.0,30.19,NNE,12,0.0,-999.0,85,-99.99,,,-99.99,,2013-03-04 03:01:00,
2013-03-03 22:11:00,7.0,3.0,30.19,NNE,12,0.0,-999.0,85,-99.99,,,-99.99,,2013-03-04 03:11:00,
2013-03-03 22:21:00,6.0,3.0,30.19,NNE,12,0.0,-999.0,86,-99.99,,,-99.99,,2013-03-04 03:21:00,
2013-03-03 22:32:00,6.0,3.0,30.19,NNE,12,0.0,-999.0,86,-99.99,,,-99.99,,2013-03-04 03:32:00,
2013-03-03 22:42:00,5.0,2.0,30.19,NNE,12,0.0,-999.0,86,-99.99,,,-99.99,,2013-03-04 03:42:00,
2013-03-03 22:52:00,5.0,2.0,30.19,NNE,12,0.0,-999.0,86,-99.99,,,-99.99,,2013-03-04 03:52:00,
2013-03-03 23:01:00,4.0,1.0,30.19,NNE,12,0.0,-999.0,85,-99.99,,,-99.99,,2013-03-04 04:01:00,
2013-03-03 23:11:00,4.0,1.0,30.19,NNE,12,0.0,-999.0,85,-99.99,,,-99.99,,2013-03-04 04:11:00,
2013-03-03 23:22:00,3.0,0.0,30.19,NNE,12,0.0,-999.0,85,-99.99,,,-99.99,,2013-03-04 04:22:00,
2013-03-03 23:32:00,3.0,0.0,30.20,NNE,12,0.0,-999.0,86,-99.99,,,-99.99,,2013-03-04 04:32:00,
2013-03-03 23:42:00,3.0,0.0,30.20,NNE,12,0.0,-999.0,86,-99.99,,,-99.99,,2013-03-04 04:42:00,
2013-03-03 23:51:00,3.0,0.0,30.20,NNE,12,0.0,-999.0,86,-99.99,,,-99.99,,2013-03-04 04:51:00,